DW4070 Weather Reports


time (UTC)temp
F
wind
direction
speed
knots
gust
knots
rain 1hr
in
rain 24hr
in
rain mn
in
humidity
%
barometer
mb
20260903170045 79 282 0.9 4.3 0.00 1.02 0.14 81 1014.6
20260903164542 78 282 0.9 3.5 0.00 1.02 0.14 83 1014.6
20260903163040 78 282 0.0 1.7 0.00 1.02 0.14 85 1014.9
20260903161541 79 282 0.9 3.5 0.00 1.02 0.14 81 1015.0
20260903160037 78 282 0.9 5.2 0.00 1.02 0.14 84 1015.2
20260903154533 77 282 0.0 3.5 0.00 1.02 0.14 85 1015.2
20260903153029 75 282 0.0 4.3 0.00 1.02 0.14 90 1015.4
20260903151530 74 285 0.0 2.6 0.00 1.02 0.14 91 1015.5
20260903150038 73 284 0.9 3.5 0.00 1.02 0.14 91 1015.4
20260903144519 72 284 0.9 3.5 0.00 1.02 0.14 94 1015.8
20260903143034 72 284 0.0 2.6 0.00 1.02 0.14 96 1015.7
20260903141519 71 284 0.0 1.7 0.00 1.02 0.14 97 1015.6
20260903140013 70 284 1.7 2.6 0.00 1.02 0.14 97 1015.7
20260903134529 70 285 0.0 1.7 0.00 1.02 0.14 97 1015.8
20260903133011 70 286 0.0 0.0 0.00 1.02 0.14 97 1015.8
20260903131509 69 286 0.0 0.0 0.00 1.02 0.14 97 1015.7
20260903130007 69 286 0.0 0.0 0.00 1.02 0.14 97 1016.2
20260903124505 68 286 0.0 0.0 0.00 1.02 0.14 97 1016.3
20260903123008 68 286 0.0 0.0 0.00 1.02 0.14 97 1016.3
20260903121502 68 320 0.0 0.0 0.00 1.02 0.14 97 1016.5
20260903120002 68 320 0.0 0.0 0.00 1.02 0.14 97 1016.6
20260903114603 67 320 0.0 0.0 0.00 1.02 0.14 97 1016.7
20260903113059 67 320 0.0 0.9 0.00 1.02 0.14 97 1016.6
20260903111559 67 284 0.0 0.0 0.00 1.02 0.14 97 1016.5
20260903110059 67 98 0.0 0.0 0.00 1.02 0.14 97 1016.5
20260903104605 67 98 0.0 0.0 0.00 1.02 0.14 97 1016.6
20260903103057 67 286 0.0 0.0 0.00 1.02 0.14 97 1016.6
20260903101557 67 286 0.0 0.0 0.00 1.02 0.14 97 1016.3
20260903100056 67 286 0.0 0.0 0.00 1.02 0.14 97 1016.3
20260903094607 67 286 0.0 0.0 0.00 1.02 0.14 97 1016.3
20260903093102 67 286 0.0 0.0 0.00 1.02 0.14 97 1016.2
20260903091553 67 286 0.0 0.0 0.00 1.02 0.14 97 1016.1
20260903090053 67 286 0.0 1.7 0.00 1.02 0.14 97 1016.0
20260903084551 67 286 0.0 0.0 0.00 1.02 0.14 97 1015.9
20260903083048 67 286 0.0 0.0 0.01 1.02 0.14 97 1016.4
20260903081550 67 286 0.0 0.0 0.02 1.02 0.14 97 1016.9
20260903080046 67 286 0.0 0.0 0.02 1.02 0.14 97 1016.7
20260903074546 67 286 0.0 0.0 0.02 1.02 0.14 97 1016.8
20260903073057 67 286 0.0 0.9 0.01 1.01 0.13 97 1017.0
20260903071544 67 286 0.0 0.0 0.00 1.00 0.12 97 1017.1
20260903070042 67 286 0.0 0.0 0.01 1.00 0.12 97 1017.4
20260903064541 67 286 0.0 0.0 0.01 1.00 0.12 97 1017.2
20260903063040 67 286 0.0 0.0 0.04 1.00 0.12 97 1017.1
20260903061539 67 286 0.0 0.0 0.08 0.99 0.11 97 1017.7
20260903060039 67 286 0.0 0.0 0.10 0.99 0.11 97 1017.9
20260903054537 66 286 0.0 0.0 0.11 0.99 0.11 96 1017.4
20260903053037 66 286 0.0 0.0 0.08 0.96 0.08 96 1018.4
20260903051530 66 286 0.0 0.0 0.03 0.91 0.03 97 1019.6
20260903050027 66 286 0.0 0.0 0.01 0.89 0.01 96 1019.5
20260903044527 66 286 0.0 0.0 0.00 0.88 0.00 96 1019.4
20260903043027 66 286 0.0 0.0 0.00 0.88 0.00 96 1019.3
20260903041525 66 286 0.0 0.0 0.00 0.88 0.00 96 1019.3
20260903040022 66 286 0.0 0.0 0.00 0.88 0.00 96 1019.6
20260903034521 66 286 0.0 0.0 0.00 0.88 0.88 96 1019.7
20260903033022 66 286 0.0 0.0 0.00 0.88 0.88 96 1019.2
20260903031529 66 286 0.0 0.0 0.00 0.88 0.88 96 1019.4
20260903030017 66 286 0.0 0.0 0.00 0.88 0.88 96 1019.7
20260903024517 66 286 0.0 0.0 0.00 0.88 0.88 96 1020.0
20260903023024 66 286 0.0 0.0 0.00 0.88 0.88 96 1020.0
20260903021535 65 286 0.0 0.0 0.00 0.88 0.88 96 1020.1
20260903020018 65 286 0.0 0.0 0.00 0.88 0.88 96 1020.1
20260903014514 65 286 0.0 0.0 0.00 0.88 0.88 96 1020.1
20260903013015 65 286 0.0 0.0 0.00 0.88 0.88 96 1020.4
20260903011514 65 286 0.0 0.0 0.00 0.88 0.88 96 1020.5
20260903010017 65 286 0.0 0.0 0.00 0.88 0.88 96 1020.5
20260903004517 65 286 0.0 0.0 0.00 0.88 0.88 95 1020.8
20260903003012 65 286 0.0 0.0 0.00 0.88 0.88 95 1020.8
20260903001513 65 286 0.0 0.0 0.00 0.88 0.88 95 1020.1
20260903000011 66 286 0.0 0.0 0.00 0.88 0.88 95 1019.7
20260902234510 66 286 0.0 0.0 0.00 0.88 0.88 95 1019.8
20260902233014 66 286 0.0 0.0 0.00 0.88 0.88 95 1020.1
20260902231510 66 286 0.0 0.0 0.00 0.88 0.88 95 1020.4
20260902230009 66 286 0.0 0.0 0.00 0.88 0.88 95 1020.6
20260902224509 66 286 0.0 0.0 0.00 0.88 0.88 95 1020.9
20260902223008 66 286 0.0 0.0 0.00 0.88 0.88 95 1021.3
20260902221508 67 286 0.0 1.7 0.00 0.88 0.88 94 1021.4
20260902220009 67 286 0.0 0.0 0.00 0.88 0.88 95 1021.5
20260902214512 66 286 0.0 0.0 0.00 0.88 0.88 94 1021.2
20260902213006 67 286 0.0 1.7 0.00 0.88 0.88 95 1021.0
20260902211505 66 286 0.0 0.0 0.00 0.88 0.88 95 1021.1
20260902210004 66 286 0.0 0.0 0.02 0.88 0.88 95 1021.1
20260902204504 66 286 0.0 2.6 0.17 0.88 0.88 95 1020.8
20260902203003 66 296 0.0 1.7 0.21 0.88 0.88 95 1020.6
20260902201504 66 303 0.0 4.3 0.25 0.88 0.88 94 1021.0
20260902200002 65 285 0.9 3.5 0.47 0.86 0.86 94 1020.9
20260902194501 65 285 0.0 0.0 0.66 0.71 0.71 94 1021.3
20260902193104 65 285 0.0 0.0 0.67 0.67 0.67 94 1021.4
20260902191610 66 285 0.0 0.0 0.63 0.63 0.63 93 1021.3
20260902190059 66 285 0.0 0.0 0.41 0.41 0.41 91 1022.1
20260902184558 68 285 0.0 1.7 0.06 0.06 0.06 88 1022.7
20260902183105 68 285 0.0 1.7 0.00 0.00 0.00 85 1021.2
20260902181556 68 285 0.0 3.5 0.00 0.00 0.00 85 1021.2
20260902180054 68 284 0.0 7.8 0.00 0.00 0.00 85 1021.5
20260902174601 68 264 0.0 2.6 0.00 0.00 0.00 86 1021.6
20260902173054 68 264 0.0 0.0 0.00 0.00 0.00 86 1021.8
20260902171558 68 264 0.0 0.0 0.00 0.00 0.00 87 1021.9